COSMOS 2530

Satellite information

Favourite Embed

Satellite Type and Status

PAYLOADIN ORBIT

Key statistics

Satellite COSMOS 2530 at a glance.

Uptime

2356

Days in orbit

Revolutions

≈ 12.4

Per day

Orbit

LEO

Low Earth Orbit

Inclination

82.5

Latest

Satellite identification and parameters

Extended collection of information and parameters for COSMOS 2530.

Object identification

Identified? True

Debris? False

Object name: COSMOS 2530

International designator: 2018-097A

Object number (NORAD): 43751

Object ID (CCSDS): 43751

Country: COMMONWEALTH OF INDEPENDENT STATES (CIS)

Current information (Y/N): Y

RCS size: LARGE

Orbital parameters

Period: 115.861 minutes

Inclination: 82.511 deg

SMA: 7872.616 km

Apoapsis: 1509.588 km

Periapsis: 1479.374 km

RAAN: 110.7584 deg

Eccentricy: 0.0019189

Argument of periapsis: 184.745 deg

Mean anomaly: 175.345 deg

Mean motion: 12.42865547 rev/day

Mean motion (dot): 0.0 rev/day2

B* drag term: -0.000073591 1/REarth

Two-line elements (TLE)

Creation date: May 12, 2025, 10:26 p.m.

Reference frame: TEME

Reference center: EARTH

Epoch: May 12, 2025, 9:35 p.m. UTC

TLE line 0: 0 COSMOS 2530

TLE line 1: 1 43751U 18097A 25132.89932616 -.00000000 00000-0 -73591-4 0 9993

TLE line 2: 2 43751 82.5110 110.7584 0019189 184.7450 175.3450 12.42865547292655

Live tracking on map

Real-time ground track for satellite COSMOS 2530.

In-orbit conjunctions

There are no conjunctions computed for COSMOS 2530, at the moment. Check back to stay up to date, as we update our databases every day.

Go to all conjunctions

Associated space launch

Rodnik is a series of military communications satellites.

COSMOS 2530 was lifted into orbit during the mission ‘Rokot / Briz-KM | 3 x Rodnik (Kosmos 2530, 2531, 2532)’, on board a Rokot/Briz-KM space rocket.

The launch took place on Nov. 30, 2018, 2:27 a.m. from 133/3 (133L).

For more information about the launch, click the button.

Launch to space Rokot / Briz-KM | 3 x Rodnik (Kosmos 2530, 2531, 2532)
Rokot / Briz-KM | 3 x Rodnik (Kosmos 2530, 2531, 2532)

Agency: N/A

Status: Launch Successful

Launch date: Nov. 30, 2018, 2:27 a.m. UTC

Rocket: Rokot/Briz-KM

Launch pad: 133/3 (133L)

Location: Plesetsk Cosmodrome, Russian Federation

...

Latest news about this satellite

There are no fresh news available about this satellite. Check back as we update our databases every day.


Newsletter sign-up

Weekly statistics, charts and insights to help you stay on top of the space industry.